Location: *
(46.4000°N, 12.6667°E)
Time: 04:00:46
(UTC+00:00)

Envisat - Pass Details

Date: 09 December 2021
Orbit: 764 x 766 km, 98.2° (Epoch: 16 January)

Event Time Altitude Azimuth Distance (km) Brightness Sun altitude
Rises 04:05:00 0° 15° (NNE) 3,244 6.3 -25.9°
Reaches altitude 10° 04:07:20 10° 18° (NNE) 2,313 5.6 -25.5°
Maximum altitude 04:12:25 71° 102° (ESE) 812 3.2 -24.6°
Drops below altitude 10° 04:17:28 10° 187° (S) 2,294 5.5 -23.8°
Sets 04:19:46 0° 189° (S) 3,216 6.2 -23.4°
